La Palma > ESTACION METEOROLÓGICA Tijarafe

DATOS ACTUALES Online

Ultima actulizacion 1 minutos

17.8 ºC

Temperatura

83

Humedad (%)

1019.2

Presión (mb)

0

Precipitación (mm)

6.4 WNW

Viento (Km/h)

DATOS DIARIOS

Temperatura últimas 24 horas (ºC)

Humedad últimas 24 horas (%)

Presión atmosférica últimas 24 horas (mb)

Precipitaciones últimas 23 horas (mm)

Viento últimas 24 horas (Km/h)

Hora Temperatura (°C) ºC Precipitación (mm) mm Presión (mb) mb Humedad (%) % Viento (Km/h) km/h
29 - 13:00 17.4 0 1019 78 6.4 SW
29 - 14:00 18.7 0 1019 77 3.2 SW
29 - 15:00 19.3 0 1018 76 9.7 W
29 - 16:00 18.3 0 1018 75 8 W
29 - 17:00 18.1 0 1018 82 14.5 W
29 - 18:00 18.1 0 1017 81 12.9 WSW
29 - 19:00 17.9 0 1017 81 11.3 WSW
29 - 20:00 17.1 0 1017 87 9.7 WNW
29 - 21:00 16.6 0 1018 87 3.2 NW
29 - 22:00 16.1 0 1018 91 0 NW
29 - 23:00 15.3 0 1018 90 0 SW
30 - 00:00 15.4 0 1019 84 8 S
30 - 01:00 15.3 0 1019 80 0 S
30 - 02:00 15.8 0 1018 80 0 S
30 - 03:00 15.4 0 1018 73 0 SE
30 - 04:00 14.8 0 1018 76 1.6 SE
30 - 05:00 14.7 0 1017 78 1.6 SE
30 - 06:00 14.1 0 1018 80 6.4 ENE
30 - 07:00 14.3 0 1018 75 1.6 ENE
30 - 08:00 15.3 0 1018 73 1.6 ENE
30 - 09:00 16.6 0 1019 76 0 WNW
30 - 10:00 17.3 0 1019 76 8 WNW
30 - 11:00 17.6 0 1019 81 9.7 NW
30 - 12:00 17.7 0 1019 84 11.3 W
30 - 13:00 17.8 0 1019 83 6.4 WNW
Apalmet utiliza cookies propias y de terceros para mejorar la usabilidad y la experiencia web. Política de cookies.